Location: Newark
(14.1000°N, 87.2167°W)
Time: 22:58:56
(UTC+00:00)

Hubble Space Telescope - Pass Details

Date: 31 July 2019
Orbit: 536 x 540 km, 28.5° (Epoch: 24 August)

Event Time Altitude Azimuth Distance (km) Brightness Sun altitude
Exits shadow 09:36:39 12° 344° (NNW) 1,684 3.4 -26.6°
Maximum altitude 09:37:13 12° 353° (N) 1,669 3.5 -26.5°
Drops below altitude 10° 09:38:45 10° 15° (NNE) 1,780 3.9 -26.1°
Sets 09:42:25 0° 48° (NE) 2,670 5.6 -25.4°
